Miscellaneous Local Product
Issued by NWS Hastings, NE

Home | Current Version | Previous Version | Graphics & Text | Print | Product List | Glossary On
Versions: 1 2 3 4 5 6 7 8 9 10 11 12 13 14 15 16 17 18 19 20 21 22 23 24 25 26 27 28 29 30 31 32 33 34 35 36 37 38 39 40 41 42 43 44 45 46 47 48 49 50
243
AXUS43 KGID 231502
MISGRI

GID CWA HOURLY WEATHER ROUNDUP
NATIONAL WEATHER SERVICE HASTINGS NE
1000 AM CDT WED MAY 23 2018

NOTE: "FAIR" INDICATES FEW OR NO CLOUDS BELOW 12,000 FEET WITH NO
SIGNIFICANT WEATHER AND/OR OBSTRUCTIONS TO VISIBILITY.

...SOUTH CENTRAL NEBRASKA...

CITY           SKY/WX    TMP DP  RH WIND       PRES   REMARKS
GRAND ISLAND   SUNNY     77  66  68 S20G28    30.02R
KEARNEY        CLOUDY    78  64  61 S20       30.02S
HASTINGS       SUNNY     77  65  66 S13G23    30.03R
ORD            MOSUNNY   73  64  73 S17G25    29.97S
YORK           MOSUNNY   81  68  65 S16       30.04R
AURORA         SUNNY     78  67  66 S13G20    30.03R
LEXINGTON      MOSUNNY   75  64  68 S15       30.01R
HOLDREGE       MOSUNNY   75  63  65 S15G21    30.02S
HEBRON         SUNNY     82  65  56 S15       30.05S

...NEBRASKA PANHANDLE...

CITY           SKY/WX    TMP DP  RH WIND       PRES   REMARKS
CHADRON        PTSUNNY   60  57  89 W9        29.97S
ALLIANCE       PTSUNNY   68  57  68 W13       29.97R
SCOTTSBLUFF    MOSUNNY   60  57  89 NW3       30.00R
SIDNEY         PTSUNNY   65  54  67 NE7       30.00S

...WESTERN AND NORTH CENTRAL NEBRASKA...

CITY           SKY/WX    TMP DP  RH WIND       PRES   REMARKS
VALENTINE      MOSUNNY   74  61  63 S12       29.93R
AINSWORTH      MOSUNNY   74  64  72 S15       29.95R
ONEILL         PTSUNNY   78  66  67 S10       29.98S
BROKEN BOW     MOSUNNY   74  63  68 S13G23    29.99S
IMPERIAL       PTSUNNY   71  55  56 S9        29.99S
NORTH PLATTE   PTSUNNY   72  63  73 S5        29.99R
MCCOOK         CLOUDY    71  58  63 S10       30.01R

...EASTERN NEBRASKA...

CITY           SKY/WX    TMP DP  RH WIND       PRES   REMARKS
NORFOLK        CLOUDY    77  66  68 S13       29.99F
SO SIOUX CITY  SUNNY     77  69  76 SE9       30.02F
TEKAMAH        SUNNY     78  69  73 S15       30.04S
COLUMBUS       SUNNY     80  66  62 S15G22    30.03S
ALBION         SUNNY     78  66  66 S16       30.01S
OMAHA EPPLEY   MOSUNNY   80  67  64 S14       30.06S
OFFUTT AFB     SUNNY     79  69  71 S10       30.06S
MILLARD        SUNNY     80  70  71 S9        30.07S
LINCOLN        SUNNY     81  66  60 S10G23    30.06R
NEBRASKA CITY  SUNNY     80  71  74 S12       30.09R
BEATRICE       SUNNY     81  69  66 S13       30.07S
FALLS CITY     SUNNY     81  67  62 S8        30.08R

...NORTHERN KANSAS...

CITY           SKY/WX    TMP DP  RH WIND       PRES   REMARKS
GOODLAND       CLOUDY    70  52  52 S23G33    30.01R
HILL CITY      CLOUDY    76  59  55 S12G22    30.01F
NORTON         SUNNY     77  59  53 SE9       30.00F
PHILLIPSBURG   PTSUNNY   79  59  50 S13G21    30.01S
SMITH CENTER     N/A     79  63  57 S15G22    30.02S
HAYS           PTSUNNY   76  61  59 S18G25    30.04S
RUSSELL        PTSUNNY   79  66  64 S21G28    30.03S
CONCORDIA      SUNNY     79  66  64 S14       30.06R
SALINA         SUNNY     82  68  62 S17G23    30.07S
TOPEKA         SUNNY     80  72  76 VRB7      30.09R



USA.gov is the U.S. government's official web portal to all federal, state and local government web resources and services.